Regional Weather Roundup
Issued by NWS

Home | Current Version | Previous Version | Text Only | Print | Product List | Glossary On
Versions: 1 2 3 4 5 6 7 8 9 10 11 12 13 14 15 16 17 18 19 20 21 22 23 24 25 26 27 28 29 30 31 32 33 34 35 36 37 38 39 40 41 42 43 44 45 46 47
000
ASUS45 KREV 040210
RWRNV
NEVADA REGIONAL WEATHER ROUNDUP
NATIONAL WEATHER SERVICE RENO NV
700 PM PDT THU SEP 03 2015

NOTE: "FAIR" INDICATES FEW OR NO CLOUDS BELOW 12,000 FEET WITH NO
SIGNIFICANT WEATHER AND/OR OBSTRUCTIONS TO VISIBILITY.

NVZ001-003-004-040300-
WESTERN NEVADA

CITY           SKY/WX    TMP DP  RH WIND       PRES   REMARKS
RENO           PTCLDY    71  35  26 W18       29.86R
CARSON CITY    FAIR      68  37  32 W15G25    29.88S
MINDEN         FAIR      68  37  32 W13       29.88R
PYRAMID LAKE     N/A     73 N/A N/A W5          N/A
FALLON         MOCLDY    77  33  20 W17       29.79R
LOVELOCK       PTCLDY    76  31  19 NW15      29.79R
HAWTHORNE      CLEAR     84  30  14 W3        29.74S
$$

NVZ002-CAZ072-073-040300-
NORTHERN AND CENTRAL SIERRA

CITY           SKY/WX    TMP DP  RH WIND       PRES   REMARKS
S. LAKE TAHOE  PTCLDY    61  37  41 VRB5      29.97S
TRUCKEE        CLEAR     59  34  38 W12G18    29.98S
SQUAW VLY 8000   N/A     46  34  61 S6          N/A
SUSANVILLE     CLEAR     70  21  16 SW9G17    29.87R
BLUE CANYON    CLEAR     59  37  44 S7        29.98F
MAMMOTH LAKES  FAIR      63  34  34 W17       29.99F
BRIDGEPORT     FAIR      61  31  32 SW9       29.96F
$$

NVZ030-031-036-040300-
NORTHERN NEVADA

CITY           SKY/WX    TMP DP  RH WIND       PRES   REMARKS
ELKO           PTCLDY    74  26  16 W10       29.79S
WINNEMUCCA     CLOUDY    72  31  22 W5        29.80S
WENDOVER       CLEAR     82  23  11 SW18      29.71S
$$

NVZ035-037-040300-
CENTRAL NEVADA

CITY           SKY/WX    TMP DP  RH WIND       PRES   REMARKS
ELY            CLEAR     72  24  16 S16G24    29.91R
EUREKA           N/A     73  21  14 W9        29.84S
$$

NVZ013-014-040300-
SOUTH CENTRAL NEVADA

CITY           SKY/WX    TMP DP  RH WIND       PRES   REMARKS
TONOPAH        CLEAR     77  18  11 S15       29.85S
$$

NVZ017-020-022-040300-
SOUTHERN NEVADA

CITY           SKY/WX    TMP DP  RH WIND       PRES   REMARKS
LAS VEGAS      PTCLDY    93  32  11 SW16G23   29.67R
N. LAS VEGAS   CLEAR     93  34  12 W16       29.69S
NELLIS AFB     CLEAR     94  35  12 SW16G22   29.67R
HENDERSON      CLEAR     92  36  14 SW15      29.74S
MERCURY        CLEAR     86  29  12 S21G33    29.77S
$$



USA.gov is the U.S. government's official web portal to all federal, state and local government web resources and services.